Regional Weather Roundup
Issued by NWS Grand Forks, ND

Home | Current Version | Previous Version | Graphics & Text | Print | Product List | Glossary On
Versions: 1 2 3 4 5 6 7 8 9 10 11 12 13 14 15 16 17 18 19 20 21 22 23 24 25 26 27 28 29 30 31 32 33 34 35 36 37 38 39 40 41 42 43 44 45 46 47 48 49 50
000
ASUS43 KFGF 050610
RWRFGF
PRAIRIE TO PINES  WEATHER ROUNDUP
NATIONAL WEATHER SERVICE EASTERN NORTH DAKOTA/GRAND FORKS ND
100 AM CDT THU MAY 05 2016

 **SATELLITE DATA USED TO AUGMENT SKY COVER AT AUTOMATED STATIONS**
 *****  WEATHER ACROSS EASTERN NORTH DAKOTA  *****

CITY           SKY/WX    TMP DP  RH WIND       PRES   REMARKS
GRAND FORKS    PTCLDY    53  31  42 S10       29.88F
6HR MIN TEMP:  51; 6HR MAX TEMP:  70;

GRAND FRKS AFB PTCLDY    55  28  35 SW10      29.88F
DEVILS LAKE    CLEAR     60  41  49 S8        29.89F
6HR MIN TEMP:  57; 6HR MAX TEMP:  71;

FARGO          CLEAR     57  27  31 S8        29.93F
WAHPETON ARPT  PTCLDY    46  30  53 S9        29.96F
$$

 ***** WEATHER ACROSS CENTRAL AND WESTERN NORTH DAKOTA  *****

CITY           SKY/WX    TMP DP  RH WIND       PRES   REMARKS
BISMARCK       CLEAR     62  46  55 S9        29.95S
6HR MIN TEMP:  55; 6HR MAX TEMP:  78;

MINOT          CLEAR     70  42  36 SW8       29.86S
6HR MIN TEMP:  69; 6HR MAX TEMP:  86;

JAMESTOWN      CLEAR     55  37  50 S9        29.93S
6HR MIN TEMP:  54; 6HR MAX TEMP:  73;

MINOT AFB      CLEAR     62  45  54 SW10      29.84S
GARRISON         N/A     53  43  68 S7        29.90S
WILLISTON      CLEAR     59  42  53 SW6       29.86S
6HR MIN TEMP:  51; 6HR MAX TEMP:  83;

DICKINSON      CLEAR     54  41  61 S10       29.93S
6HR MIN TEMP:  53; 6HR MAX TEMP:  78;

HETTINGER      CLEAR     55  42  61 S8        29.99S
6HR MIN TEMP:  55; 6HR MAX TEMP:  76;

$$

 *****  OTHER AIRPORT OBSERVATIONS IN OUR AREA  *****

CITY           SKY/WX    TMP DP  RH WIND       PRES   REMARKS
WALHALLA       FAIR      64  37  36 SW13G21   29.82F
GRAFTON AIRPOR FAIR      54  32  43 S10       29.88F
VALLEY CITY AR FAIR      50  32  50 S13       29.96S
CANDO          FAIR      61  41  48 SW13      29.88F
CAVALIER APRT  FAIR      55  34  44 SW13      29.84F
GWINNER        FAIR      50  36  57 S10       29.97S
SHEYENNE NWR     N/A     47  33  59 S3        29.95S
ROLLA          MOCLDY    61  41  48 SW14      29.87F
 ***** THE ABOVE OBSERVATIONS ARE NON NWS ARE NOT QUALITY
       CONTROLLED AND MAY MIS-REPORT RAIN FOR SNOW...
$$

  *****  WEATHER ACROSS NORTHERN MINNESOTA  *****

CITY           SKY/WX    TMP DP  RH WIND       PRES   REMARKS
FLAG ISLAND    PTCLDY    48  37  66 S10       29.90S
WARROAD        CLEAR     48  34  57 SE9       29.91S
ROSEAU         CLEAR    N/A N/A N/A S9        29.89S
HALLOCK        CLEAR     54  25  32 S10       29.86S
THF RVR FALLS  CLEAR     52  27  37 S8        29.92S
6HR MIN TEMP:  50; 6HR MAX TEMP:  66;

BAUDETTE       MOCLDY    49  28  44 SE5       29.94S
6HR MIN TEMP:  45; 6HR MAX TEMP:  60;

WASKISH        CLOUDY    46  27  46 SE6       29.95S
CROOKSTON      CLEAR     55  28  35 S9        29.91S
STEPHEN NDAWN    N/A     54  30  40 S12         N/A
GREENBUSH NDAW   N/A     48  34  57 S6          N/A
$$
  *****  WEATHER ACROSS CENTRAL AND WEST MINNESOTA  *****

CITY           SKY/WX    TMP DP  RH WIND       PRES   REMARKS
FOSSTON        CLEAR     50  27  40 SE7       29.94S
BEMIDJI        CLEAR     44  30  57 S3        29.96F
PARK RAPIDS    CLEAR     46  28  49 E5        29.97R
6HR MIN TEMP:  42; 6HR MAX TEMP:  66;

ELBOW LAKE     FAIR      49  37  63 S7        29.99S
6HR MIN TEMP:  49; 6HR MAX TEMP:  66;

WADENA         CLEAR     45  30  57 CALM      29.97F
DETROIT LAKES  CLEAR     48  41  76 S5        29.96F
MOORHEAD       CLEAR     54  30  40 S8        29.95S
FERGUS FALLS   PTCLDY    50  34  53 S6        29.95F
MORRIS MN      CLEAR     50  34  53 CALM      29.99S
STAPLES        CLEAR     39  30  70 CALM      29.98S
$$
  *****  WEATHER ELSEWHERE ACROSS MINNESOTA  *****

CITY           SKY/WX    TMP DP  RH WIND       PRES   REMARKS
DULUTH         CLEAR     38  27  64 CALM      30.00R
6HR MIN TEMP:  38; 6HR MAX TEMP:  52;

INTRNTL FALLS  LGT RAIN  46  33  60 CALM      29.94F
6HR MIN TEMP:  37; 6HR MAX TEMP:  60; 6HR PCP: TRACE;

ELY            CLEAR     34  27  75 CALM      29.99R
CLOQUET        CLEAR     36  28  75 CALM      30.01R
WHEATON        CLEAR     52  34  50 S7        30.00S
BRAINERD       CLEAR     42  30  62 CALM      29.99R
6HR MIN TEMP:  39; 6HR MAX TEMP:  62;

HIBBING        CLEAR     29  24  82 CALM      29.99R
6HR MIN TEMP:  29; 6HR MAX TEMP:  59;

ALEXANDRIA     CLEAR     48  32  53 SE3       30.00S
6HR MIN TEMP:  44; 6HR MAX TEMP:  64;

SAINT CLOUD    CLEAR     40  30  67 CALM      29.99R
6HR MIN TEMP:  40; 6HR MAX TEMP:  64;

MINNEAPOLIS    CLEAR     51  28  41 SE7       30.00R
6HR MIN TEMP:  50; 6HR MAX TEMP:  65;

$$

  *****  WEATHER ACROSS SOUTH DAKOTA  *****

CITY           SKY/WX    TMP DP  RH WIND       PRES   REMARKS
SIOUX FALLS    CLEAR     46  37  71 CALM      30.03S
6HR MIN TEMP:  45; 6HR MAX TEMP:  66;

BROOKINGS      CLEAR     47  32  56 CALM      30.02S
WATERTOWN      CLEAR     48  37  65 SW3       30.01F
6HR MIN TEMP:  46; 6HR MAX TEMP:  67;

HURON          CLEAR     50  42  74 CALM      30.02S
6HR MIN TEMP:  49; 6HR MAX TEMP:  71;

SISSETON         N/A     47  34  60 SW7       29.98S
ABERDEEN       CLEAR     47  35  63 CALM      29.99S
6HR MIN TEMP:  46; 6HR MAX TEMP:  74;

MITCHELL       CLEAR     52  41  66 CALM      30.03R
PIERRE         CLEAR     53  40  61 SE5       30.01S
6HR MIN TEMP:  51; 6HR MAX TEMP:  74;

MOBRIDGE       CLEAR     53  46  77 SE8       29.97S
RAPID CITY     CLEAR     50  42  74 SE8       30.02S
6HR MIN TEMP:  50; 6HR MAX TEMP:  73;

$$

  *****  SOME WEATHER IN NEARBY STATES *****

CITY           SKY/WX    TMP DP  RH WIND       PRES   REMARKS
GLASGOW MT     CLOUDY    60  40  47 SE13      29.82F
6HR MIN TEMP:  60; 6HR MAX TEMP:  84;

GREAT FALLS MT CLOUDY    57  37  47 CALM      29.89S
6HR MIN TEMP:  52; 6HR MAX TEMP:  79;

CHEYENNE WY    CLEAR     50  35  56 SW9       30.18S
6HR MIN TEMP:  48; 6HR MAX TEMP:  70;

SCOTTSBLUFF NE CLEAR     51  42  71 E7        30.09S
6HR MIN TEMP:  50; 6HR MAX TEMP:  75;

OMAHA NE       CLEAR     52  44  74 CALM      30.02R
6HR MIN TEMP:  51; 6HR MAX TEMP:  67;

DES MOINES IA  CLEAR     54  34  46 N6        29.99R
6HR MIN TEMP:  54; 6HR MAX TEMP:  67;

DAVENPORT IA   CLEAR     45  34  65 NE9       29.94R
6HR MIN TEMP:  45; 6HR MAX TEMP:  61;

CHICAGO IL     MOCLDY    43  33  68 N22G32    29.88S
6HR MIN TEMP:  42; 6HR MAX TEMP:  45;

EAU CLAIRE WI  CLEAR     40  29  64 CALM      29.99S
6HR MIN TEMP:  40; 6HR MAX TEMP:  61;

LA CROSSE WI   CLEAR     48  30  49 N5        29.99R
6HR MIN TEMP:  48; 6HR MAX TEMP:  63;

$$

  *****  SOME NATIONAL WEATHER *****

CITY           SKY/WX    TMP DP  RH WIND       PRES   REMARKS
LA GUARDIA NY  CLOUDY    49  45  86 NE13G21   29.72F
6HR MIN TEMP:  49; 6HR MAX TEMP:  54;

RALEIGH NC     PTCLDY    53  51  93 CALM      29.60F
6HR MIN TEMP:  53; 6HR MAX TEMP:  66;

ATLANTA GA     PTCLDY    54  50  86 NW10      29.76S
6HR MIN TEMP:  54; 6HR MAX TEMP:  66; 6HR PCP:  0.02;

NEW ORLEANS LA CLEAR     64  54  69 W7        29.89F
6HR MIN TEMP:  64; 6HR MAX TEMP:  75;

OKLAHOMA CITY  PTCLDY    61  40  45 N6        30.05R
6HR MIN TEMP:  61; 6HR MAX TEMP:  76;

ALBUQUERQUE NM CLEAR     63  22  20 SE7       30.19S
6HR MIN TEMP:  61; 6HR MAX TEMP:  77;

SALT LAKE CITY MOCLDY    65  39  38 S6        29.95S
6HR MIN TEMP:  64; 6HR MAX TEMP:  82;

LOS ANGELES CA MOCLDY    60  50  69 W7        29.95R
6HR MIN TEMP:  60; 6HR MC1F1C2F2C3F3C4F4C5F5C6F6C7F7C8F8C9F9CaFaCbFbCcFcCd!



USA.gov is the U.S. government's official web portal to all federal, state and local government web resources and services.